Weather History for Stockton, CA

Change the Weather History Date:

Tuesday, October 30, 2012

  Actual Average Record
Temperature  
Mean Temperature 64 °F -  
Max Temperature 80 °F 72 °F 85 °F (1993)
Min Temperature 47 °F 46 °F 34 °F (1971)
Degree Days  
Heating Degree Days 1 6  
Month to date heating degree days 61 85  
Since 1 July heating degree days 61 91  
Cooling Degree Days 0 0  
Month to date cooling degree days 76 52  
Year to date cooling degree days 1370 1318  
Growing Degree Days 13 (Base 50)    
Moisture  
Dew Point 52 °F    
Average Humidity 71    
Maximum Humidity 100    
Minimum Humidity 42    
Precipitation  
Precipitation 0.00 in 0.05 in 0.49 in (1975)
Month to date precipitation 0.27 0.77  
Year to date precipitation 6.75 10.10  
Since 1 July precipitation 0.28 1.07  
Snow  
Snow 0.00 in - 0.00 in (2002)
Month to date snowfall 0.0  
Since 1 July snowfall 0.0  
Since 1 September snowfall 0.0  
Snow Depth -    
Sea Level Pressure  
Sea Level Pressure 30.00 in    
Wind  
Wind Speed 2 mph (WNW)    
Max Wind Speed 7 mph    
Max Gust Speed 17 mph    
Visibility 8 miles    
Events Fog    
T = Trace of Precipitation, MM = Missing Value Source: NWS Daily Summary

Daily Weather History Graph

Daily Weather History Graph

Search for Another Location

Airport:

Trip Planner

Search our weather history database for the weather conditions in past years. The results will help you decide how hot, cold, wet, or windy it might be!

Date:

Astronomy

Oct. 30, 2012 Rise Set
Actual Time 7:28 AM PDT 6:07 PM PDT
Civil Twilight 7:01 AM PDT 6:34 PM PDT
Nautical Twilight 6:30 AM PDT 7:05 PM PDT
Astronomical Twilight 6:00 AM PDT 7:36 PM PDT
Moon 6:42 PM PDT (10/30) 8:19 AM PDT (10/30)
Length of Visible Light 11h 32m
Length of Day
10h 38m
Full, 99% of the Moon is Illuminated
Oct 30
Full
Nov 6
Last Quarter
Nov 13
New
Nov 20
First Quarter
Nov 28
Full

Hourly Weather History & Observations

Time (PDT) Temp. Dew Point Humidity Pressure Visibility Wind Dir Wind Speed Gust Speed Precip Events Conditions
12:55 AM 55.9 °F 51.1 °F 84% 30.03 in 9.0 mi Calm Calm - N/A   Clear
1:55 AM 55.9 °F 52.0 °F 87% 30.02 in 9.0 mi Calm Calm - N/A   Clear
2:55 AM 52.0 °F 48.0 °F 86% 30.03 in 10.0 mi Calm Calm - N/A   Clear
3:55 AM 52.0 °F 48.0 °F 86% 30.03 in 8.0 mi Calm Calm - N/A   Clear
4:55 AM 50.0 °F 46.4 °F 87% 30.02 in 9.0 mi Calm Calm - N/A   Clear
5:55 AM 50.0 °F 46.9 °F 89% 30.03 in 8.0 mi Calm Calm - N/A   Clear
6:55 AM 48.9 °F 46.9 °F 93% 30.02 in 7.0 mi SSW 3.5 mph - N/A   Clear
7:55 AM 48.9 °F 48.0 °F 97% 30.04 in 6.0 mi West 3.5 mph - N/A   Clear
8:04 AM 50.0 °F 48.2 °F 94% 30.04 in 1.8 mi West 3.5 mph - N/A   Scattered Clouds
8:06 AM 50.0 °F 48.2 °F 94% 30.05 in 0.8 mi West 3.5 mph - N/A   Mist
8:15 AM 50.0 °F 50.0 °F 100% 30.05 in 0.2 mi WNW 3.5 mph - N/A Fog Fog
8:22 AM 51.8 °F 48.2 °F 88% 30.06 in 3.0 mi WNW 3.5 mph - N/A   Clear
8:55 AM 55.9 °F 52.0 °F 87% 30.06 in 7.0 mi Calm Calm - N/A   Clear
9:55 AM 62.1 °F 55.0 °F 78% 30.07 in 7.0 mi North 5.8 mph - N/A   Clear
10:55 AM 66.9 °F 55.0 °F 66% 30.06 in 9.0 mi Calm Calm - N/A   Clear
11:55 AM 71.1 °F 55.0 °F 57% 30.04 in 9.0 mi Variable 3.5 mph - N/A   Clear
12:55 PM 73.9 °F 54.0 °F 50% 30.01 in 10.0 mi Calm Calm - N/A   Clear
1:55 PM 78.1 °F 54.0 °F 43% 29.99 in 10.0 mi WSW 3.5 mph - N/A   Clear
2:55 PM 79.0 °F 55.0 °F 44% 29.97 in 9.0 mi Variable 6.9 mph - N/A   Clear
3:55 PM 78.1 °F 54.0 °F 43% 29.95 in 10.0 mi Calm Calm - N/A   Clear
4:55 PM 78.1 °F 53.1 °F 42% 29.94 in 10.0 mi WNW 5.8 mph - N/A   Clear
5:55 PM 75.9 °F 55.0 °F 48% 29.94 in 10.0 mi NW 6.9 mph - N/A   Clear
6:55 PM 69.1 °F 54.0 °F 58% 29.94 in 10.0 mi NW 5.8 mph - N/A   Clear
7:55 PM 66.9 °F 52.0 °F 59% 29.94 in 10.0 mi WNW 8.1 mph - N/A   Clear
8:55 PM 64.0 °F 55.9 °F 75% 29.94 in 10.0 mi NW 9.2 mph - N/A   Clear
9:55 PM 62.1 °F 55.0 °F 78% 29.95 in 10.0 mi NW 5.8 mph - N/A   Clear
10:55 PM 60.1 °F 55.0 °F 83% 29.96 in 10.0 mi NNW 4.6 mph - N/A   Clear
11:55 PM 57.9 °F 54.0 °F 87% 29.96 in 10.0 mi NNW 5.8 mph - N/A   Clear